GW1549 Weather Reports


time (UTC)temp
F
wind
direction
speed
knots
gust
knots
rain 1hr
in
rain 24hr
in
rain mn
in
humidity
%
barometer
mb
20260510225719 71 33 0.9 1.7 0.00 0.00 0.00 48 1010.4
20260510225121 70 348 0.9 0.9 0.00 0.00 0.00 51 1010.4
20260510223920 70 32 0.0 0.9 0.00 0.00 0.00 53 1010.4
20260510223335 71 258 0.9 1.7 0.00 0.00 0.00 51 1010.1
20260510222740 71 33 1.7 2.6 0.00 0.00 0.00 52 1010.4
20260510222141 71 8 0.0 0.9 0.00 0.00 0.00 51 1010.4
20260510221542 71 27 0.0 0.9 0.00 0.00 0.00 54 1010.4
20260510220929 71 22 0.0 0.0 0.00 0.00 0.00 57 1010.4
20260510220312 72 50 0.9 1.7 0.00 0.00 0.00 54 1010.4
20260510215120 73 287 1.7 2.6 0.00 0.00 0.00 53 1010.1
20260510214518 73 285 1.7 2.6 0.00 0.00 0.00 56 1010.1
20260510213910 73 26 1.7 1.7 0.00 0.00 0.00 54 1010.1
20260510213350 73 331 0.9 0.9 0.00 0.00 0.00 54 1010.4
20260510212721 73 352 0.9 1.7 0.00 0.00 0.00 55 1010.1
20260510212154 73 21 0.9 0.9 0.00 0.00 0.00 55 1009.8
20260510210926 72 34 0.0 0.0 0.00 0.00 0.00 58 1009.8
20260510210336 70 36 0.0 0.0 0.00 0.00 0.00 58 1010.1
20260510205746 71 14 0.0 0.9 0.00 0.00 0.00 56 1009.8
20260510205138 71 333 0.9 0.9 0.00 0.00 0.00 58 1010.1
20260510204552 71 10 0.9 0.9 0.00 0.00 0.00 59 1009.8
20260510203930 71 68 0.0 0.9 0.00 0.00 0.00 58 1009.8
20260510203333 71 18 0.0 0.9 0.00 0.00 0.00 57 1009.8
20260510202745 71 10 0.0 0.0 0.00 0.00 0.00 61 1009.8
20260510202136 71 322 1.7 2.6 0.00 0.00 0.00 61 1010.1
20260510200912 70 55 2.6 3.5 0.00 0.00 0.00 61 1010.1
20260510200339 71 93 0.9 1.7 0.00 0.00 0.00 61 1009.8
20260510195720 71 302 1.7 2.6 0.00 0.00 0.00 63 1009.8
20260510195153 72 348 1.7 1.7 0.00 0.00 0.00 58 1010.1
20260510194535 71 359 1.7 1.7 0.00 0.00 0.00 61 1010.4
20260510193952 70 338 2.6 3.5 0.00 0.00 0.00 61 1010.1
20260510193321 70 68 1.7 3.5 0.00 0.00 0.00 61 1010.4
20260510192731 70 11 1.7 2.6 0.00 0.00 0.00 61 1010.4
20260510192132 71 48 0.9 2.6 0.00 0.00 0.00 62 1010.4
20260510191534 72 62 1.7 2.6 0.00 0.00 0.00 60 1010.4
20260510190926 72 259 1.7 2.6 0.00 0.00 0.00 58 1010.4
20260510190319 71 37 1.7 1.7 0.00 0.00 0.00 60 1010.4
20260510185121 69 44 0.9 0.9 0.00 0.00 0.00 63 1010.4
20260510184544 69 4 0.0 0.9 0.00 0.00 0.00 66 1010.1
20260510183943 67 13 0.0 0.9 0.00 0.00 0.00 68 1010.4
20260510183349 66 58 0.9 0.9 0.00 0.00 0.00 68 1010.4
20260510182738 66 50 0.9 0.9 0.00 0.00 0.00 67 1010.4
20260510182115 68 50 1.7 3.5 0.00 0.00 0.00 65 1010.4
20260510181544 68 18 0.9 1.7 0.00 0.00 0.00 69 1010.4
20260510180934 69 350 0.9 0.9 0.00 0.00 0.00 68 1010.4
20260510180317 68 351 1.7 1.7 0.00 0.00 0.00 70 1010.4
20260510175741 67 7 0.0 0.0 0.00 0.00 0.00 73 1010.4
20260510175152 66 42 1.7 2.6 0.00 0.00 0.00 74 1010.4
20260510173950 68 11 0.0 0.0 0.00 0.00 0.00 75 1010.4
20260510173326 68 15 0.9 0.9 0.00 0.00 0.00 75 1010.4
20260510172724 68 41 0.0 0.9 0.00 0.00 0.00 75 1010.1
20260510172111 67 357 1.7 2.6 0.00 0.00 0.00 76 1010.1
20260510170336 67 31 0.0 0.0 0.00 0.00 0.00 77 1010.4
20260510165751 67 345 2.6 3.5 0.00 0.00 0.00 78 1010.4
20260510164545 67 25 0.0 0.9 0.00 0.00 0.00 77 1010.1
20260510163944 66 5 1.7 1.7 0.00 0.00 0.00 77 1010.1
20260510162725 66 49 3.5 3.5 0.00 0.00 0.00 77 1010.1
20260510161529 67 46 0.0 0.0 0.00 0.00 0.00 76 1010.1
20260510160950 67 59 0.0 0.0 0.00 0.00 0.00 77 1010.1
20260510155736 66 29 0.0 0.0 0.00 0.00 0.00 78 1010.1
20260510155150 65 340 0.9 0.9 0.00 0.00 0.00 79 1010.1
20260510154523 65 28 0.0 0.0 0.00 0.00 0.00 79 1010.1
20260510153949 65 190 0.0 0.9 0.00 0.00 0.00 79 1010.1
20260510153322 66 259 0.9 1.7 0.00 0.00 0.00 79 1009.8
20260510152734 65 93 0.9 0.9 0.00 0.00 0.00 79 1009.8
20260510152149 64 291 1.7 1.7 0.00 0.00 0.00 79 1009.8
20260510151535 64 310 0.0 0.0 0.00 0.00 0.00 81 1009.8
20260510150914 64 302 0.9 1.7 0.00 0.00 0.00 81 1009.4
20260510150339 63 18 0.0 0.0 0.00 0.00 0.00 83 1009.4
20260510145717 63 323 0.9 1.7 0.00 0.00 0.00 83 1009.4
20260510145138 62 289 0.9 1.7 0.00 0.00 0.00 83 1009.8
20260510144510 62 359 0.0 0.0 0.00 0.00 0.00 85 1009.8
20260510143927 62 358 0.9 1.7 0.00 0.00 0.00 85 1009.4
20260510143335 62 311 0.9 0.9 0.00 0.00 0.00 86 1009.4
20260510142713 62 4 0.0 0.0 0.00 0.00 0.00 86 1009.4
20260510142128 62 4 0.9 0.9 0.00 0.00 0.00 84 1009.1
20260510140929 62 33 0.9 0.9 0.00 0.00 0.00 84 1008.8
20260510135715 62 44 0.9 0.9 0.00 0.00 0.00 82 1009.1
20260510135116 62 352 0.9 0.9 0.00 0.00 0.00 83 1009.1
20260510134511 62 343 0.9 0.9 0.00 0.00 0.00 83 1009.4
20260510133348 62 348 0.0 0.0 0.00 0.00 0.00 83 1009.1
20260510132749 61 306 0.9 1.7 0.00 0.00 0.00 83 1009.1
20260510131517 61 289 0.0 0.9 0.00 0.00 0.00 83 1008.8
20260510130920 61 314 1.7 1.7 0.00 0.00 0.00 84 1009.1
20260510130331 59 139 1.7 1.7 0.00 0.00 0.00 85 1009.4
20260510125751 59 341 0.0 0.0 0.00 0.00 0.00 86 1008.8
20260510125144 59 224 0.9 1.7 0.00 0.00 0.00 86 1009.1
20260510123308 58 326 0.0 0.0 0.00 0.00 0.00 88 1008.4
20260510122730 57 220 0.0 0.0 0.00 0.00 0.00 88 1008.4
20260510122134 57 320 0.0 0.0 0.00 0.00 0.00 88 1008.4
20260510121511 57 335 0.0 0.0 0.00 0.00 0.00 88 1008.4
20260510120949 57 325 0.0 0.0 0.00 0.00 0.00 88 1008.1
20260510115743 56 300 0.0 0.0 0.00 0.00 0.00 88 1008.1
20260510114518 56 241 0.0 0.0 0.00 0.00 0.00 89 1007.7
20260510113914 56 188 0.0 0.0 0.00 0.00 0.00 90 1008.1
20260510112710 55 213 0.9 1.7 0.00 0.00 0.00 91 1007.7
20260510112131 54 237 0.9 1.7 0.00 0.00 0.00 92 1007.7
20260510111532 54 232 0.0 0.9 0.00 0.00 0.00 94 1007.7
20260510110933 53 303 0.0 0.0 0.00 0.00 0.00 95 1007.4
20260510110312 53 222 0.0 0.0 0.00 0.00 0.00 95 1007.4
20260510105747 52 326 0.0 0.0 0.00 0.00 0.00 95 1007.7
20260510105143 52 345 0.0 0.0 0.00 0.00 0.00 95 1007.4
20260510103935 53 340 0.0 0.0 0.00 0.00 0.00 95 1007.1
20260510103324 52 338 0.0 0.0 0.00 0.00 0.00 95 1007.1
20260510102717 52 21 0.0 0.0 0.00 0.00 0.00 94 1006.7
20260510102142 52 359 0.0 0.0 0.00 0.00 0.00 94 1006.4
20260510101511 53 359 0.0 0.0 0.00 0.00 0.00 94 1007.1
20260510100351 52 359 0.0 0.0 0.00 0.00 0.00 93 1006.4
20260510095710 53 352 0.0 0.0 0.00 0.00 0.00 93 1006.4
20260510095139 54 8 0.0 0.0 0.00 0.00 0.00 92 1006.4
20260510094539 53 8 0.0 0.0 0.00 0.00 0.00 91 1006.4
20260510093908 54 8 0.0 0.0 0.00 0.00 0.00 91 1006.4
20260510093327 54 8 0.0 0.0 0.00 0.00 0.00 90 1006.4
20260510092725 55 1 0.0 0.0 0.00 0.00 0.00 89 1006.4
20260510092129 56 355 0.0 0.0 0.00 0.00 0.00 88 1006.0
20260510091537 56 323 0.0 0.0 0.00 0.00 0.00 88 1006.0
20260510090909 56 332 0.0 0.0 0.00 0.00 0.00 88 1006.0
20260510090341 56 226 0.9 0.9 0.00 0.00 0.00 88 1006.0
20260510085716 56 219 0.9 1.7 0.00 0.00 0.00 88 1005.7
20260510083948 56 212 0.0 0.0 0.00 0.00 0.00 88 1006.0
20260510083352 56 294 0.0 0.0 0.00 0.00 0.00 88 1006.0
20260510082744 56 264 1.7 1.7 0.00 0.00 0.00 89 1005.7
20260510082119 56 353 0.0 0.0 0.00 0.00 0.00 88 1005.7
20260510081549 57 319 0.0 0.0 0.00 0.00 0.00 88 1005.7
20260510080918 57 337 0.0 0.0 0.00 0.00 0.00 88 1005.7
20260510080327 57 328 0.0 0.0 0.00 0.00 0.00 87 1005.7
20260510075750 57 324 0.0 0.0 0.00 0.00 0.00 87 1005.7
20260510074542 57 324 0.0 0.0 0.00 0.00 0.00 87 1005.7
20260510073942 57 324 0.0 0.0 0.00 0.00 0.00 87 1005.7
20260510073347 58 341 0.0 0.0 0.00 0.00 0.00 87 1005.7
20260510072734 58 318 0.0 0.0 0.00 0.00 0.00 87 1005.4
20260510072126 58 301 0.0 0.0 0.00 0.00 0.00 87 1005.7
20260510071546 58 302 0.0 0.0 0.00 0.00 0.00 86 1005.4
20260510070925 58 310 0.0 0.0 0.00 0.00 0.00 86 1005.4
20260510070312 58 319 0.0 0.0 0.00 0.00 0.00 86 1005.4
20260510065734 58 324 0.0 0.0 0.00 0.00 0.00 85 1005.4
20260510065141 59 320 0.0 0.0 0.00 0.00 0.00 85 1005.4
20260510063923 59 232 0.0 0.9 0.00 0.00 0.00 85 1005.7
20260510063330 59 268 0.0 0.0 0.00 0.00 0.00 84 1005.4
20260510062709 59 244 0.0 0.0 0.00 0.00 0.00 84 1005.4
20260510062146 59 265 0.0 0.0 0.00 0.00 0.00 84 1005.4
20260510061534 60 218 0.0 0.9 0.00 0.00 0.00 84 1005.7
20260510060949 60 188 0.0 0.9 0.00 0.00 0.00 83 1005.4
20260510060341 60 234 0.9 1.7 0.00 0.00 0.00 84 1005.4
20260510055725 60 325 0.0 0.0 0.00 0.00 0.00 83 1005.7
20260510055118 60 251 0.0 0.0 0.00 0.00 0.00 83 1005.4
20260510054538 60 260 0.0 0.0 0.00 0.00 0.00 84 1005.7
20260510053314 60 308 0.0 0.9 0.00 0.00 0.00 84 1005.4
20260510052149 60 232 0.0 0.0 0.00 0.00 0.00 83 1005.7
20260510051548 60 222 0.9 1.7 0.00 0.00 0.00 83 1005.7
20260510050912 60 227 1.7 2.6 0.00 0.00 0.00 83 1005.7
20260510050332 60 223 1.7 1.7 0.00 0.00 0.00 83 1005.7
20260510045721 60 220 1.7 2.6 0.00 0.00 0.00 82 1005.7
20260510045110 61 258 1.7 1.7 0.00 0.00 0.00 82 1005.7
20260510043931 61 281 1.7 1.7 0.00 0.00 0.00 82 1005.7
20260510043338 61 224 2.6 2.6 0.00 0.00 0.00 82 1005.7
20260510042711 61 3 1.7 1.7 0.00 0.00 0.00 82 1005.4
20260510042145 61 218 2.6 3.5 0.00 0.00 0.00 81 1005.7
20260510041533 61 207 1.7 2.6 0.00 0.00 0.00 82 1005.7
20260510040924 61 212 1.7 1.7 0.00 0.00 0.00 82 1005.7
20260510040343 61 305 1.7 1.7 0.00 0.00 0.00 81 1005.7
20260510035747 61 192 1.7 1.7 0.00 0.00 0.00 81 1005.7
20260510035123 62 319 0.9 1.7 0.00 0.00 0.00 81 1006.0
20260510034541 62 290 0.9 0.9 0.00 0.00 0.00 80 1005.7
20260510033910 62 255 1.7 2.6 0.00 0.00 0.00 80 1005.7
20260510033316 62 229 1.7 2.6 0.00 0.00 0.00 79 1005.7
20260510032752 62 272 3.5 3.5 0.00 0.00 0.00 80 1005.7
20260510032147 62 221 1.7 2.6 0.00 0.00 0.00 80 1005.7
20260510031524 62 206 2.6 2.6 0.00 0.00 0.00 80 1005.7
20260510030919 62 267 1.7 2.6 0.00 0.00 0.00 80 1005.7
20260510030328 62 215 1.7 2.6 0.00 0.00 0.00 80 1005.7
20260510025732 62 215 0.9 1.7 0.00 0.00 0.00 80 1005.7
20260510025123 62 333 0.9 1.7 0.00 0.00 0.00 79 1005.7
20260510023940 62 337 0.9 0.9 0.00 0.00 0.00 78 1005.4
20260510022739 63 214 1.7 1.7 0.00 0.00 0.00 78 1005.0
20260510021510 63 224 1.7 1.7 0.00 0.00 0.00 76 1005.0
20260510020952 64 223 1.7 2.6 0.00 0.00 0.00 76 1005.0
20260510015740 64 198 2.6 2.6 0.00 0.00 0.00 76 1005.0
20260510015143 64 227 1.7 1.7 0.00 0.00 0.00 76 1004.7
20260510014511 64 213 2.6 2.6 0.00 0.00 0.00 75 1004.7
20260510013946 64 308 0.9 1.7 0.00 0.00 0.00 75 1004.4
20260510012725 64 216 1.7 1.7 0.00 0.00 0.00 74 1004.4
20260510012131 64 218 1.7 2.6 0.00 0.00 0.00 73 1004.4
20260510011556 65 254 1.7 1.7 0.00 0.00 0.00 73 1004.4
20260510010951 65 232 2.6 2.6 0.00 0.00 0.00 71 1004.0
20260510010348 65 230 1.7 1.7 0.00 0.00 0.00 70 1003.7
20260510005143 66 206 2.6 2.6 0.00 0.00 0.00 67 1004.0
20260510004550 66 245 1.7 2.6 0.00 0.00 0.00 65 1003.7
20260510003308 67 189 1.7 2.6 0.00 0.00 0.00 63 1003.3
20260510002716 67 216 1.7 2.6 0.00 0.00 0.00 63 1003.3
20260510001511 68 304 0.9 1.7 0.00 0.00 0.00 62 1003.3
20260510000943 68 217 1.7 1.7 0.00 0.00 0.00 62 1003.3
20260510000349 69 199 1.7 1.7 0.00 0.00 0.00 60 1003.3
20260509235710 69 239 0.9 1.7 0.00 0.00 0.00 60 1003.3
20260509235126 69 204 1.7 2.6 0.00 0.00 0.00 59 1003.3
20260509234543 69 340 0.0 0.9 0.00 0.00 0.00 58 1003.0
20260509233949 70 219 1.7 2.6 0.00 0.00 0.00 57 1003.0
20260509233339 70 247 1.7 1.7 0.00 0.00 0.00 58 1003.0
20260509232130 70 192 1.7 2.6 0.00 0.00 0.00 55 1003.0